Miscellaneous Local Product
Issued by NWS Hastings, NE

Home | Current Version | Previous Version | Text Only | Print | Product List | Glossary Off
Versions: 1 2 3 4 5 6 7 8 9 10 11 12 13 14 15 16 17 18 19 20 21 22 23 24 25 26 27 28 29 30 31 32 33 34 35 36 37 38 39 40 41 42 43 44 45 46 47 48 49 50

000
AXUS43 KGID 290302
MISGRI

GID CWA HOURLY WEATHER ROUNDUP
NATIONAL WEATHER SERVICE HASTINGS NE
1000 PM CDT THU MAY 28 2015

NOTE: "FAIR" INDICATES FEW OR NO CLOUDS BELOW 12,000 FEET WITH NO
SIGNIFICANT WEATHER AND/OR OBSTRUCTIONS TO VISIBILITY.

...SOUTH CENTRAL NEBRASKA...

CITY           SKY/WX    TMP DP  RH WIND       PRES   REMARKS
GRAND ISLAND   CLOUDY    71  60  68 S9        29.91F
HASTINGS       CLOUDY    70  63  78 S6        29.92F
KEARNEY        CLOUDY    68  55  64 S22G29    29.92S THUNDER
ORD            CLOUDY    68  63  84 SE7       29.87F
YORK           CLOUDY    73  63  68 S7        29.93S
AURORA         CLOUDY    72  59  63 S8        29.92F
LEXINGTON      CLOUDY    60  56  84 NW15      29.94F
HOLDREGE       CLOUDY    69  53  57 W29       29.96R
HEBRON         CLOUDY    70  61  74 S3        29.92F

...NEBRASKA PANHANDLE...

CITY           SKY/WX    TMP DP  RH WIND       PRES   REMARKS
CHADRON        CLOUDY    57  53  86 NE6       30.00R
ALLIANCE       CLOUDY    56  53  90 E14       29.98F
SCOTTSBLUFF    TSTM      59  50  72 W17G25    30.06R
SIDNEY         CLOUDY    54  51  90 SW9       30.01R

...WESTERN AND NORTH CENTRAL NEBRASKA...

CITY           SKY/WX    TMP DP  RH WIND       PRES   REMARKS
VALENTINE      CLOUDY    65  55  70 N12       29.94R
AINSWORTH      CLOUDY    64  57  80 S14       29.91R
ONEILL         CLOUDY    70  61  73 S5        29.88S THUNDER
BROKEN BOW     TSTM      61  57  87 NW17      29.92R
IMPERIAL       CLOUDY    56  52  86 S7        29.93R
NORTH PLATTE   LGT RAIN  58  55  90 E13       29.91F
MCCOOK         CLOUDY    57  55  93 SE7       29.93F

...EASTERN NEBRASKA...

CITY           SKY/WX    TMP DP  RH WIND       PRES   REMARKS
NORFOLK        CLOUDY    70  65  84 S13       29.90F
SO SIOUX CITY  CLOUDY    69  62  78 SE9       29.93R
TEKAMAH        CLOUDY    68  64  87 S12       29.93R
COLUMBUS       CLOUDY    70  63  78 SE9       29.92F
ALBION         CLOUDY    73  59  62 S6        29.90F
OMAHA EPPLEY   CLOUDY    69  64  84 SE9       29.94R
OFFUTT AFB     MOCLDY    67  63  86 SE5       29.94R
MILLARD        MOCLDY    69  64  86 SE6       29.94R
LINCOLN        CLOUDY    69  65  86 S8        29.94R
NEBRASKA CITY  PTCLDY    65  63  93 S6        29.96R
BEATRICE       CLOUDY    70  64  82 SE5       29.94S
FALLS CITY     MOCLDY    67  63  87 SE7       29.96R

...NORTHERN KANSAS...

CITY           SKY/WX    TMP DP  RH WIND       PRES   REMARKS
GOODLAND       CLOUDY    57  51  80 E8        30.00S
HILL CITY      LGT RAIN  59  55  87 W3        29.95F
NORTON         PTCLDY    61  48  63 CALM      29.97R
SMITH CENTER   DRIZZLE   63  55  77 W10       29.99R
HAYS           CLOUDY    61  52  72 E3        29.96F
RUSSELL        TSTM      61  56  83 W20G29    29.99R
CONCORDIA      CLOUDY    68  63  84 S6        29.93R
SALINA         CLOUDY    71  64  78 SE5       29.93R
TOPEKA         MOCLDY    68  64  87 SE7       29.97R



USA.gov is the U.S. government's official web portal to all federal, state and local government web resources and services.